Location: Cherryland
(37.6794°N, 122.1033°W)
Time: 14:29:45
(UTC+00:00)

Cosmos 2058 Rocket - Pass Details

Date: 14 December 2025
Orbit: 603 x 633 km, 82.5° (Epoch: 17 January)

Event Time Altitude Azimuth Distance (km) Brightness Sun altitude
Exits shadow 14:12:57 17° 302° (WNW) 1,565 4.5 -12.1°
Maximum altitude 14:14:35 21° 272° (W) 1,392 4.3 -11.8°
Drops below altitude 10° 14:17:51 10° 223° (SW) 1,962 5.4 -11.2°
Sets 14:20:28 0° 208° (SSW) 2,856 6.4 -10.8°
